Temp
30 26 25 30 30 31 31 30 29 28 29 28 28 27 27 28 28 27 27 27 27 26 26 25 24 24 23 23 22 21 21 21 20 20 19 19 19 20 20 20 20 21 20 21
27 26 29 32 31 31 30 30 30 29 29 27 29 30 29 28 29 28 27 27 27 27 26 25 25 24 23 23 22 21 21 20 20 20 20 19 19 20 20 20 20 21 20 21
26 29 32 31 30 30 28 29 28 29 29 29 29 27 28 29 29 29 28 27 27 27 26 25 25 24 24 23 22 22 21 20 20 20 19 19 19 20 20 20 20 21 21 21
28 31 31 30 30 30 27 29 29 29 27 25 29 24 27 28 28 29 29 27 28 28 27 25 25 24 24 23 22 22 21 20 20 19 19 19 19 19 20 20 21 21 21 21
29 27 30 30 29 29 28 28 27 28 26 25 26 25 27 28 24 26 25 23 24 25 24 22 24 24 24 24 23 22 21 20 20 19 19 19 19 20 20 21 21 21 21 21
29 30 29 29 29 29 29 28 26 26 24 21 24 24 24 27 26 23 23 23 24 25 25 23 22 23 24 23 23 23 22 22 21 20 19 19 19 20 20 20 21 20 20 21
28 28 28 29 28 28 28 25 21 22 22 21 25 26 27 26 25 26 25 25 25 25 24 21 21 23 24 22 22 23 23 22 22 22 21 20 19 19 20 20 21 21 21 20
25 24 27 29 27 27 26 25 20 23 23 23 25 25 26 28 28 27 26 25 25 23 23 24 24 23 22 21 20 20 21 22 23 23 23 22 20 20 20 20 20 20 21 21
22 25 28 28 28 27 25 22 25 24 25 23 25 26 24 25 26 27 27 27 27 26 26 25 24 23 21 21 21 21 20 20 21 23 23 23 23 22 21 21 20 20 20 21
25 24 27 27 28 28 27 26 21 19 22 24 24 26 23 24 24 25 25 25 26 26 25 25 24 23 22 22 21 20 21 20 19 20 21 22 24 23 23 22 21 21 21 21
25 23 24 28 26 25 24 23 24 21 21 21 21 22 24 23 24 23 24 26 25 25 24 23 23 23 22 21 20 19 19 20 19 20 21 22 22 23 23 23 23 22 21 21
22 22 20 24 27 27 26 26 24 18 21 20 21 21 23 22 24 25 25 25 25 24 23 23 22 21 21 21 20 20 18 18 20 19 23 21 22 23 23 23 23 23 22 21
21 19 19 22 25 23 26 26 26 22 21 21 20 22 24 25 22 21 21 23 23 23 23 22 22 21 21 20 20 20 19 18 17 19 19 19 19 22 23 23 23 23 22 22
23 20 20 18 22 22 22 23 24 22 19 20 21 24 22 22 20 20 20 20 20 20 20 20 20 19 19 20 20 20 20 19 18 18 18 18 19 20 22 23 23 23 23 22
21 20 21 20 22 22 22 23 23 22 22 21 21 20 18 19 18 20 20 20 19 19 19 19 18 18 18 18 18 19 19 20 18 18 18 18 18 18 19 20 21 23 23 22
21 19 21 20 22 22 22 23 24 23 23 22 21 18 19 19 19 20 20 19 19 19 19 18 17 17 17 17 17 17 18 19 19 18 18 18 18 18 19 19 19 21 22 22
20 18 17 18 20 20 19 22 22 22 20 19 17 17 18 17 18 18 18 17 16 16 17 17 17 17 17 17 16 16 16 17 18 18 18 17 18 18 19 20 20 20 20 21
19 19 18 16 18 17 20 21 21 21 20 18 18 17 17 17 17 17 17 15 14 14 14 15 16 16 16 16 16 16 16 16 17 17 17 17 16 17 18 19 20 20 20 19
21 18 16 16 16 19 20 19 19 18 16 17 16 16 16 16 16 16 16 15 14 14 13 14 14 15 15 16 16 16 16 15 16 16 16 15 15 16 16 18 19 19 19 20
20 17 16 16 17 17 18 20 20 20 15 16 16 15 13 13 11 12 11 11 12 12 12 12 13 14 14 15 14 14 15 15 15 15 15 16 15 15 15 16 17 19 19 19
17 17 16 16 16 17 18 20 20 16 13 14 13 12 11 10 10 9 9 9 10 10 11 11 12 12 12 13 13 13 14 13 13 14 14 16 16 16 16 16 17 18 18 18
18 16 16 16 17 16 19 19 17 14 14 13 12 11 10 8 8 7 6 7 7 8 9 9 10 10 11 12 12 12 13 12 12 13 14 15 15 15 15 16 17 18 18 18
17 17 16 16 15 17 16 15 15 14 13 11 10 9 8 8 5 4 4 4 4 4 5 6 7 8 9 10 10 10 11 11 12 12 14 14 14 14 15 16 17 17 18 18
20 20 16 17 16 16 16 15 14 13 11 10 9 9 8 6 4 3 3 3 3 3 3 4 4 5 6 8 8 6 8 9 8 8 11 13 13 14 15 15 16 17 18 17
19 18 17 16 13 14 13 14 13 11 12 10 9 9 7 6 4 4 4 4 4 4 4 3 4 4 4 5 6 6 7 8 8 8 10 12 12 13 14 14 16 17 18 17
19 17 15 15 14 14 15 15 13 12 11 10 10 9 8 6 5 6 6 4 4 5 5 4 4 4 4 4 5 5 6 8 8 9 11 12 13 13 14 14 15 15 16 16
Height
1494 1501 1505 1488 1479 1482 1485 1490 1498 1498 1493 1498 1499 1499 1500 1501 1507 1511 1514 1518 1522 1526 1531 1536 1540 1544 1547 1549 1553 1555 1558 1560 1563 1565 1568 1573 1576 1580 1582 1584 1586 1588 1590 1593
1498 1504 1486 1480 1481 1485 1487 1491 1495 1492 1490 1497 1492 1493 1492 1495 1498 1501 1506 1511 1517 1522 1527 1533 1538 1543 1546 1548 1550 1554 1556 1557 1560 1563 1567 1570 1574 1577 1581 1582 1583 1585 1587 1590
1501 1492 1481 1482 1488 1493 1495 1497 1498 1499 1491 1488 1490 1500 1493 1491 1495 1500 1502 1506 1512 1517 1523 1529 1536 1541 1545 1547 1549 1551 1554 1557 1559 1561 1565 1569 1572 1574 1577 1579 1581 1582 1584 1586
1491 1483 1485 1488 1492 1492 1509 1491 1491 1495 1505 1523 1491 1533 1494 1488 1492 1491 1496 1504 1509 1514 1519 1525 1532 1538 1542 1545 1549 1551 1553 1555 1557 1560 1562 1565 1567 1569 1572 1574 1577 1579 1582 1583
1493 1491 1489 1493 1495 1490 1500 1494 1497 1497 1507 1511 1503 1519 1492 1480 1497 1491 1499 1505 1514 1515 1524 1534 1542 1538 1540 1544 1546 1550 1553 1555 1557 1558 1560 1562 1565 1568 1571 1572 1573 1575 1578 1580
1489 1488 1489 1494 1492 1492 1491 1496 1499 1501 1513 1542 1507 1514 1507 1487 1491 1500 1505 1511 1514 1517 1520 1530 1543 1547 1550 1547 1546 1548 1550 1551 1554 1556 1556 1558 1561 1564 1567 1569 1571 1571 1572 1574
1489 1491 1492 1494 1499 1494 1496 1511 1544 1544 1543 1544 1495 1508 1501 1484 1491 1496 1501 1504 1513 1520 1527 1528 1537 1536 1545 1550 1552 1548 1547 1549 1548 1549 1551 1553 1555 1559 1562 1565 1568 1568 1568 1569
1510 1522 1496 1495 1500 1505 1505 1510 1545 1551 1549 1530 1489 1517 1509 1484 1487 1494 1503 1510 1517 1524 1527 1530 1533 1534 1538 1541 1548 1555 1553 1548 1546 1545 1545 1546 1550 1553 1556 1560 1562 1563 1564 1565
1519 1514 1494 1496 1498 1501 1509 1526 1506 1524 1511 1529 1511 1503 1503 1497 1499 1501 1506 1511 1517 1521 1525 1531 1533 1539 1542 1549 1553 1551 1546 1553 1548 1542 1541 1542 1543 1546 1551 1553 1556 1559 1560 1561
1505 1521 1496 1499 1498 1499 1504 1504 1534 1535 1549 1544 1531 1519 1525 1511 1510 1509 1512 1515 1520 1523 1527 1531 1534 1538 1545 1546 1545 1546 1548 1541 1544 1541 1540 1538 1537 1540 1541 1547 1549 1552 1555 1557
1504 1514 1514 1499 1505 1510 1514 1521 1517 1524 1531 1552 1560 1543 1503 1510 1510 1515 1517 1520 1523 1527 1530 1532 1533 1536 1538 1540 1540 1540 1540 1538 1535 1529 1526 1524 1529 1532 1535 1536 1540 1543 1548 1551
1512 1516 1533 1515 1499 1495 1502 1511 1518 1550 1546 1540 1544 1547 1513 1514 1516 1518 1520 1524 1526 1528 1530 1530 1530 1531 1532 1532 1532 1532 1531 1527 1526 1519 1517 1519 1521 1525 1528 1529 1532 1535 1538 1542
1519 1529 1543 1524 1512 1508 1509 1508 1509 1518 1526 1542 1557 1548 1515 1516 1520 1524 1526 1528 1529 1529 1529 1528 1527 1527 1527 1527 1526 1527 1525 1525 1521 1516 1515 1515 1517 1520 1520 1521 1524 1526 1529 1532
1516 1526 1534 1551 1533 1523 1526 1518 1515 1522 1544 1541 1538 1527 1528 1525 1529 1530 1530 1531 1532 1531 1530 1531 1530 1527 1526 1524 1523 1522 1522 1521 1519 1516 1513 1511 1512 1514 1516 1514 1515 1517 1519 1521
1519 1533 1527 1525 1521 1522 1524 1522 1519 1525 1525 1536 1532 1537 1541 1537 1535 1534 1535 1534 1533 1532 1531 1530 1529 1528 1525 1523 1520 1518 1517 1517 1516 1514 1511 1509 1507 1509 1510 1511 1512 1508 1509 1511
1518 1533 1525 1531 1522 1520 1523 1516 1514 1516 1518 1520 1524 1537 1534 1538 1537 1537 1537 1535 1535 1534 1532 1529 1527 1526 1524 1521 1518 1515 1511 1510 1510 1509 1507 1505 1503 1501 1502 1500 1500 1503 1497 1497
1522 1531 1539 1543 1529 1528 1537 1519 1515 1515 1521 1527 1542 1540 1533 1534 1534 1536 1537 1537 1536 1534 1533 1530 1527 1524 1522 1519 1516 1512 1507 1505 1503 1501 1500 1498 1496 1493 1492 1491 1488 1487 1491 1492
1525 1529 1534 1547 1538 1555 1527 1514 1514 1518 1524 1528 1533 1535 1536 1537 1537 1538 1537 1534 1533 1533 1531 1528 1525 1521 1518 1515 1512 1507 1503 1501 1499 1495 1492 1490 1488 1485 1483 1482 1478 1480 1480 1456
1521 1528 1540 1548 1548 1532 1522 1526 1526 1529 1538 1534 1535 1534 1535 1535 1533 1534 1534 1533 1530 1527 1525 1522 1520 1515 1510 1508 1505 1501 1498 1495 1494 1491 1487 1483 1481 1478 1476 1473 1470 1469 1476 1476
1520 1524 1539 1544 1550 1551 1536 1528 1527 1528 1545 1538 1539 1540 1540 1538 1540 1536 1534 1531 1526 1523 1519 1515 1510 1507 1504 1502 1497 1492 1490 1488 1486 1484 1480 1476 1473 1471 1468 1465 1462 1460 1460 1461
1530 1531 1541 1542 1545 1537 1531 1528 1526 1541 1553 1540 1540 1541 1541 1542 1543 1536 1531 1527 1523 1516 1510 1507 1504 1500 1497 1491 1489 1486 1483 1480 1478 1475 1472 1467 1464 1461 1459 1456 1454 1453 1455 1457
1526 1534 1537 1537 1540 1545 1528 1526 1534 1538 1538 1539 1540 1539 1539 1539 1536 1531 1526 1521 1516 1509 1504 1501 1495 1491 1488 1484 1482 1478 1475 1471 1468 1464 1460 1457 1454 1452 1450 1448 1446 1446 1448 1450
1529 1525 1535 1535 1539 1532 1531 1532 1533 1533 1536 1538 1538 1538 1537 1533 1531 1528 1522 1517 1512 1506 1501 1496 1491 1486 1483 1479 1475 1469 1465 1461 1456 1451 1447 1445 1443 1442 1441 1440 1439 1439 1440 1442
1517 1518 1527 1528 1530 1530 1531 1533 1532 1532 1533 1534 1534 1534 1533 1532 1530 1527 1523 1517 1512 1506 1498 1493 1487 1480 1477 1473 1468 1463 1457 1451 1446 1440 1436 1435 1435 1435 1435 1433 1432 1431 1434 1436
1520 1520 1522 1525 1528 1527 1530 1534 1531 1531 1531 1532 1531 1531 1532 1530 1528 1525 1522 1517 1512 1506 1498 1492 1486 1480 1474 1469 1464 1458 1450 1444 1438 1432 1428 1427 1428 1428 1428 1428 1427 1427 1428 1429
1520 1523 1528 1529 1526 1526 1526 1528 1527 1529 1531 1531 1528 1529 1530 1527 1525 1521 1519 1516 1510 1504 1499 1493 1487 1479 1471 1466 1461 1456 1444 1439 1432 1425 1422 1421 1422 1421 1422 1422 1422 1424 1426 1428
Wind_Speed
15 4 8 9 7 2 4 6 10 7 8 9 11 12 19 25 25 27 29 31 30 30 28 27 26 26 28 27 28 24 24 23 19 20 31 23 19 23 21 18 13 11 9 20
6 7 10 7 7 7 8 8 6 5 8 6 6 5 19 22 22 32 31 31 32 30 31 30 27 27 30 30 29 28 26 24 24 21 25 28 21 17 22 19 18 16 14 12
7 5 7 7 7 7 7 5 7 4 6 7 4 6 10 16 19 24 31 35 33 32 34 33 30 29 29 32 29 28 30 28 26 24 21 25 21 18 22 21 21 21 20 15
8 6 6 5 4 4 5 8 10 9 5 3 3 5 6 16 17 16 27 31 33 32 35 35 33 31 31 32 29 27 26 32 30 26 24 26 28 28 25 22 23 24 21 18
3 9 3 0 5 7 2 9 7 6 7 7 13 2 7 21 7 6 12 22 14 22 21 6 21 32 32 31 31 28 26 28 29 28 28 25 27 24 28 25 20 25 23 18
2 6 5 3 6 4 7 5 8 5 2 3 12 6 7 14 9 6 17 18 13 12 15 3 3 12 25 29 32 30 26 23 25 26 29 28 28 25 25 28 27 24 26 23
5 6 6 3 3 5 5 3 3 3 0 6 7 2 2 16 19 17 16 22 17 17 15 19 26 26 22 10 31 34 30 27 21 22 25 31 29 29 25 27 26 30 26 29
3 4 8 3 5 3 5 2 4 3 3 6 8 6 1 18 25 29 29 27 24 26 19 19 12 27 28 29 9 26 34 32 28 24 22 26 32 31 30 31 26 29 32 30
6 4 6 10 5 4 7 4 6 1 5 4 2 6 7 9 14 25 27 30 28 28 25 29 21 14 24 17 4 21 4 33 39 31 29 27 29 32 31 34 34 27 25 27
5 3 7 6 1 4 3 3 5 5 4 4 4 4 7 7 12 15 18 27 25 24 21 20 20 19 15 13 15 12 8 5 27 36 40 36 31 32 30 32 36 35 32 29
5 3 5 3 5 4 1 3 3 2 4 2 3 4 8 10 13 13 19 21 17 19 19 16 15 11 9 8 10 19 19 10 13 18 39 43 44 37 34 32 34 37 36 33
7 2 3 5 4 7 6 3 3 4 7 2 3 2 7 11 17 20 20 18 14 12 11 12 12 10 10 15 17 20 24 26 15 16 27 43 46 46 40 36 36 37 38 37
5 4 4 7 4 10 4 4 2 2 1 3 4 4 8 18 25 30 31 20 16 15 13 11 13 14 16 18 21 25 25 24 27 16 12 32 48 50 44 39 33 36 40 39
4 2 1 3 2 4 6 9 8 4 2 3 4 1 17 14 16 23 28 26 25 24 23 22 20 9 13 18 25 26 26 26 24 26 18 13 31 48 47 44 39 33 37 41
2 1 5 8 8 7 7 8 9 6 6 2 7 8 8 9 9 20 21 23 25 26 27 21 14 15 17 19 24 28 29 29 29 29 24 19 12 24 39 43 43 37 36 38
4 2 3 5 8 9 7 7 8 8 6 6 7 8 10 20 22 22 20 19 18 22 18 15 19 20 19 22 26 30 32 34 32 33 30 25 22 19 25 36 44 44 44 40
3 3 5 4 8 9 6 5 6 6 13 7 8 4 15 14 20 22 23 21 24 24 23 20 22 24 23 22 24 28 31 37 37 36 34 30 28 26 26 25 38 49 46 44
4 1 2 4 5 3 4 14 12 7 14 13 11 10 13 17 20 20 17 27 26 27 28 27 28 28 29 30 30 29 32 36 40 39 38 34 31 28 27 28 30 42 46 50
2 2 2 1 3 7 5 10 10 5 8 14 12 17 21 24 23 18 20 32 39 40 35 32 28 27 27 30 31 33 36 39 42 41 38 37 33 31 29 31 34 33 37 43
4 5 4 3 2 2 4 8 13 6 2 12 15 16 17 20 7 7 28 28 31 30 32 35 36 33 31 29 23 26 33 39 43 42 40 39 38 35 34 33 33 36 32 34
3 1 5 5 5 3 4 11 7 1 1 15 16 15 15 6 9 23 29 28 28 31 34 33 32 29 24 26 29 30 34 39 39 41 44 43 40 37 37 36 32 34 34 33
4 4 1 3 3 0 12 5 2 5 14 14 14 13 12 13 21 29 29 32 33 34 32 28 26 23 25 29 31 34 37 42 42 44 48 44 38 34 34 31 29 32 32 29
1 5 4 4 2 6 20 18 16 13 13 12 7 8 16 22 23 24 26 29 28 28 29 28 25 26 25 28 31 36 38 42 44 47 46 38 33 29 27 28 29 28 32 29
2 4 3 2 3 6 7 9 9 10 11 3 8 12 16 20 19 18 21 25 26 24 20 18 18 20 26 26 26 31 36 39 41 42 37 29 24 21 24 24 25 23 27 28
2 6 2 2 9 12 16 7 9 9 3 7 8 13 16 16 14 18 21 23 28 29 29 26 23 22 21 18 21 25 25 29 31 34 27 21 19 19 24 22 20 18 18 26
3 2 2 3 11 9 11 15 15 12 3 4 6 11 12 11 12 18 21 18 21 23 26 33 34 33 26 22 27 27 25 16 19 17 14 19 18 17 20 20 20 15 16 16
Wind_Direction
287 248 252 300 109 101 336 293 139 175 180 183 196 203 174 183 181 175 181 181 186 183 184 183 185 186 189 192 195 189 193 203 208 194 183 182 196 195 192 204 225 225 216 186
285 249 275 93 53 17 332 320 151 147 168 174 198 214 176 185 194 181 181 180 185 185 182 182 186 189 196 195 199 200 197 202 213 208 194 187 194 204 198 198 216 218 233 214
237 292 48 39 15 6 319 4 6 135 204 224 193 269 170 185 187 184 186 181 183 186 181 179 184 191 200 201 203 207 205 205 211 215 206 197 197 199 195 203 222 220 233 248
250 109 47 13 340 320 44 10 12 1 36 284 52 270 196 174 187 204 183 176 182 182 183 182 183 191 201 206 210 214 213 211 215 216 213 200 201 209 210 214 224 228 235 247
341 39 114 79 14 30 90 25 349 328 330 353 299 30 284 161 177 198 53 104 111 118 106 91 194 195 199 211 212 218 219 218 217 219 216 209 208 219 217 213 212 227 240 245
89 79 10 58 6 19 334 338 309 274 212 300 248 160 291 173 144 106 110 105 88 140 160 192 255 237 208 217 217 217 217 220 221 216 212 207 216 221 229 222 215 225 232 236
223 157 96 46 289 264 225 332 309 342 334 222 228 11 231 102 118 132 135 140 171 168 147 162 208 208 207 214 221 223 220 222 218 218 214 211 217 221 220 215 224 233 234 229
218 88 135 184 85 10 315 59 136 304 352 268 343 122 66 118 118 117 127 139 145 162 147 161 184 198 202 207 239 224 228 229 227 224 223 219 218 224 222 222 224 233 237 239
25 82 91 62 27 55 325 62 255 311 284 34 81 43 46 87 93 89 84 80 74 76 76 81 113 137 193 203 237 239 204 249 234 238 235 227 227 226 228 221 223 226 231 238
319 13 137 134 192 222 183 287 16 352 10 338 25 141 175 115 88 85 78 70 63 61 63 67 73 77 79 63 40 2 263 297 236 241 240 238 237 234 235 230 227 228 227 234
343 34 310 113 203 183 319 349 356 158 138 144 33 312 101 104 102 92 86 79 68 58 59 52 48 40 27 24 23 19 359 329 288 281 241 237 240 237 235 235 233 231 228 229
355 1 340 274 341 94 92 65 75 99 308 349 137 341 77 58 62 88 92 93 95 75 62 42 32 18 344 331 333 344 3 351 324 345 254 250 240 241 237 237 238 232 230 230
343 346 343 308 18 26 25 89 16 335 115 281 111 230 72 57 61 55 46 51 53 54 43 15 352 340 335 329 327 332 332 344 344 324 325 237 237 241 241 242 243 236 233 232
42 293 269 218 309 1 352 343 352 28 48 298 240 256 34 44 60 50 44 37 27 21 19 16 0 351 334 324 324 330 334 331 337 335 324 276 242 242 247 245 245 243 237 235
76 290 345 337 343 334 313 307 310 315 287 279 286 49 57 52 56 50 45 32 18 3 354 358 30 5 355 337 324 322 325 327 329 332 326 309 269 251 247 248 248 250 248 240
203 263 320 320 299 300 322 311 281 233 263 278 356 58 32 49 39 33 30 22 7 342 336 336 351 345 341 337 330 323 320 320 319 322 325 315 297 275 255 249 245 246 248 245
64 50 21 310 333 339 327 283 26 49 70 63 55 31 25 27 19 9 1 16 13 7 354 337 323 322 321 321 324 315 317 313 315 314 316 318 308 291 275 269 246 243 245 249
17 19 168 257 298 268 295 28 47 48 48 48 49 36 31 19 357 352 356 359 349 340 334 331 323 314 309 309 308 307 307 306 306 309 308 310 312 304 286 271 264 251 246 243
343 45 347 79 284 286 41 25 37 49 50 32 27 20 10 360 344 339 332 326 320 321 318 312 310 309 308 301 300 290 292 296 297 303 300 301 304 299 297 279 265 266 254 250
215 122 114 342 346 292 52 41 24 18 127 14 23 27 13 6 342 329 331 325 319 322 318 316 313 306 299 301 288 280 284 289 294 298 294 294 292 289 288 288 276 264 266 261
210 187 194 230 230 124 17 355 352 260 158 47 36 22 9 9 332 318 321 325 318 311 308 305 299 304 304 286 286 283 281 286 292 292 292 291 289 285 281 284 278 271 263 261
173 153 256 349 316 110 0 343 80 132 61 49 38 11 351 338 327 324 329 329 323 316 313 319 306 297 290 285 280 282 283 288 290 290 288 288 284 280 281 279 276 265 261 256
64 156 167 131 159 75 70 82 89 92 77 52 36 357 347 341 343 339 337 336 333 326 311 304 305 302 297 294 295 294 292 293 295 290 285 282 278 278 276 274 273 260 254 256
62 30 128 95 96 56 41 88 88 113 107 57 26 9 358 360 353 359 11 18 10 357 343 340 340 322 313 308 309 310 305 303 298 292 287 274 267 279 274 276 275 268 245 240
324 137 257 118 13 37 24 334 137 122 72 63 40 29 33 30 35 28 19 23 18 16 13 10 2 357 347 343 346 335 311 292 294 288 278 261 258 267 278 267 268 273 254 241
95 118 97 240 181 180 224 199 167 181 141 108 82 73 50 33 22 15 3 342 332 348 13 21 5 2 1 3 9 2 13 331 304 287 271 266 253 256 253 241 240 241 225 213